RH
20 20 20 19 19 20 21 21 21 20 21 22 24 24 25 25 26 27 28 30 32 35 69 74 53 74 54 61 57 55 59 75 86 86 88 95 86 83
24 22 22 21 21 21 22 24 23 23 24 25 26 26 27 27 29 30 31 33 35 60 91 95 96 97 86 80 84 63 62 78 88 89 93 87 88 85
28 27 25 24 23 25 24 25 25 25 26 26 27 28 28 28 30 33 34 35 38 65 96 99 100 95 96 94 75 68 72 82 92 91 87 91 89 79
30 30 29 30 29 29 27 28 28 29 29 29 29 29 30 31 33 35 37 40 44 50 89 100 99 97 97 91 80 82 86 91 91 88 87 90 85 73
36 36 37 38 37 33 36 33 32 34 33 32 32 33 34 35 37 40 44 48 52 74 99 100 99 96 97 97 96 98 97 94 90 87 89 88 80 55
39 39 40 39 37 38 38 34 34 36 37 37 39 39 40 42 47 53 80 91 93 98 99 98 98 98 98 99 100 100 93 94 87 88 88 83 64 46
41 44 43 38 37 37 35 40 39 44 47 52 65 63 58 58 63 97 98 98 98 98 98 96 97 94 96 95 94 96 98 95 88 86 86 71 54 38
46 68 63 60 64 61 70 65 69 68 95 97 94 91 85 74 98 99 98 98 98 98 96 99 97 97 96 92 95 97 96 94 91 89 80 64 48 29
96 91 93 99 96 100 100 99 100 96 98 99 99 100 99 99 99 99 98 98 98 98 94 95 92 92 95 95 95 95 94 92 92 87 71 53 39 22
98 99 99 99 99 99 99 99 100 97 97 99 99 98 99 98 99 98 98 98 99 99 96 91 93 96 95 96 97 98 100 96 89 73 56 45 27 17
97 98 99 99 99 99 99 96 99 99 98 99 97 99 92 97 98 96 98 98 99 95 89 89 94 92 95 94 99 98 98 93 84 67 49 33 21 17
95 96 86 82 89 91 84 63 69 95 99 96 92 100 95 100 98 99 98 98 98 97 93 94 96 96 95 98 98 96 94 89 81 58 36 21 18 41
36 36 38 42 48 54 56 66 78 83 84 80 98 96 96 100 96 98 99 98 98 94 93 93 95 99 98 100 94 93 91 85 74 51 29 35 52 30
42 45 47 38 36 40 49 46 69 87 84 82 94 100 99 100 100 99 100 99 98 96 91 93 96 99 99 94 92 93 90 82 74 63 60 67 25 11
18 20 22 22 26 35 65 90 94 99 99 97 100 99 99 97 97 97 99 98 95 92 91 90 94 99 96 89 92 93 86 83 74 74 80 54 14 10
20 17 19 25 30 43 62 70 99 100 99 100 99 98 97 99 98 98 97 95 93 90 90 91 94 92 87 87 91 89 86 83 81 85 72 14 11 10
22 24 24 23 27 34 48 85 81 99 100 100 99 99 99 100 97 97 96 94 92 87 88 92 87 84 84 85 87 84 84 84 86 60 19 12 18 17
29 30 32 30 27 31 34 69 98 100 100 100 100 100 99 100 99 99 98 96 94 88 89 88 85 86 87 86 84 82 82 89 54 17 13 12 19 24
34 34 34 33 37 53 54 73 99 100 100 100 100 98 97 97 96 96 98 95 90 88 89 88 87 88 89 87 84 87 85 62 20 18 17 20 20 25
34 33 33 36 43 41 43 54 91 98 100 100 100 99 97 98 100 100 98 92 87 89 90 89 88 88 93 95 94 87 70 39 47 18 20 24 24 27
40 38 35 31 30 34 41 59 80 83 98 99 99 96 97 96 96 97 96 93 93 93 89 86 90 96 95 98 89 36 69 47 21 21 21 21 22 26
55 52 47 44 39 31 29 43 74 77 88 94 96 97 97 98 95 94 94 95 91 87 87 90 92 92 97 93 75 87 30 28 25 30 28 28 30 35
38 36 37 39 41 40 36 35 57 75 90 98 99 100 98 96 96 96 95 92 87 89 88 87 85 90 92 92 72 32 27 29 36 39 42 39 43 52
Wind_Speed
33 33 32 32 32 32 31 30 29 29 26 25 25 25 25 26 27 26 27 27 26 27 29 30 31 31 28 30 29 29 29 33 34 35 31 34 33 31
34 34 34 33 33 34 32 30 30 30 29 28 27 28 28 28 28 28 29 30 30 30 31 33 40 37 31 29 29 31 32 35 37 33 33 31 31 30
36 35 34 33 35 33 33 31 31 31 30 29 29 29 29 29 30 31 33 33 35 34 36 40 38 36 29 28 30 31 34 36 35 32 31 32 29 30
36 36 35 34 34 35 35 29 31 31 32 31 31 32 32 31 33 34 34 34 36 37 43 42 32 29 28 30 31 32 34 37 32 31 34 30 30 30
37 36 34 35 35 35 31 31 31 33 34 34 34 34 33 32 34 35 36 37 38 39 44 33 28 29 31 32 32 33 35 31 31 34 31 30 29 30
37 36 36 35 34 32 32 32 33 35 35 36 36 36 35 34 35 35 38 45 48 44 37 30 30 31 31 30 32 33 31 30 33 31 31 31 29 31
38 38 36 35 33 34 36 34 35 37 37 38 40 41 40 38 35 37 38 35 36 32 27 29 30 32 32 32 31 29 30 33 31 32 32 31 32 33
40 35 36 35 34 35 34 34 39 41 40 42 43 45 44 40 39 34 32 31 29 26 29 29 30 30 30 29 30 30 32 31 31 32 31 33 34 35
44 39 37 35 36 36 39 44 42 41 39 37 37 33 38 37 33 32 32 31 24 28 29 27 28 28 29 29 31 33 31 31 32 31 32 35 36 36
41 32 32 37 46 35 35 35 42 37 32 28 25 24 24 32 29 29 33 27 31 27 24 25 26 27 29 31 32 32 31 32 31 31 33 36 37 38
16 23 23 25 22 24 26 30 32 24 32 31 30 28 34 27 22 23 24 27 28 24 26 27 26 28 31 31 31 31 32 31 31 32 34 36 38 40
17 22 26 31 33 29 30 30 28 22 23 28 31 32 27 27 26 26 25 28 27 27 28 28 28 29 30 30 30 33 33 33 31 33 34 36 39 42
21 22 23 24 25 26 26 26 27 27 28 26 27 27 28 32 25 26 28 29 28 29 29 30 27 28 30 30 31 33 33 33 32 33 34 37 40 43
26 27 27 25 25 25 24 25 24 24 28 27 26 26 25 25 27 26 26 28 30 29 30 29 28 29 30 32 34 34 34 35 34 33 35 37 39 40
22 22 23 25 26 28 28 26 27 30 29 28 27 23 26 27 27 27 27 30 30 28 28 28 29 29 32 34 35 35 35 34 35 36 35 35 35 36
24 23 23 22 22 24 28 28 29 33 30 28 25 25 25 27 28 27 26 26 27 27 26 28 29 31 33 36 36 36 36 34 35 36 34 31 30 35
27 26 24 24 24 24 23 22 23 22 25 25 26 27 29 29 27 25 25 26 25 26 26 28 29 31 34 35 36 38 35 32 34 32 32 28 24 32
32 29 28 28 28 28 26 23 23 25 24 25 26 26 26 27 26 25 25 24 24 25 26 28 29 31 33 34 34 35 33 31 28 30 31 31 23 25
34 33 31 30 28 28 26 24 22 22 25 26 25 25 26 27 26 25 25 25 27 27 27 28 30 32 32 33 33 31 29 26 25 27 29 29 27 23
31 30 31 30 29 29 29 28 26 28 26 25 26 26 27 27 27 27 27 28 28 28 28 29 31 31 31 29 27 30 27 24 27 27 26 24 23 21
30 30 30 30 30 29 27 28 27 28 29 29 30 31 31 31 30 29 28 27 27 27 28 30 29 27 27 26 23 21 27 26 26 28 27 24 22 17
31 32 33 32 30 29 29 28 29 31 30 30 31 32 33 33 31 29 28 27 28 29 30 28 27 25 23 23 23 22 21 23 24 25 29 28 28 26
34 32 33 33 33 32 30 30 30 31 32 32 33 33 33 32 30 28 27 27 28 29 27 25 24 23 23 23 21 21 20 18 17 17 21 26 25 26
Wind_Direction
238 239 238 238 238 236 237 239 244 246 250 253 257 260 260 262 265 269 273 275 273 275 283 285 284 285 285 287 290 292 288 299 299 300 295 298 300 300
233 236 236 238 241 241 241 242 246 249 250 252 254 257 260 263 266 268 270 270 272 276 282 287 291 282 282 288 291 289 283 294 300 296 297 298 300 301
232 232 235 236 240 242 245 244 248 251 254 255 257 260 263 266 268 268 269 272 273 277 286 294 281 286 286 289 289 286 282 291 297 294 294 298 299 299
230 232 234 236 239 242 245 247 250 253 256 257 258 261 263 264 265 267 270 272 275 281 291 292 286 288 286 284 284 282 284 293 291 289 296 297 299 297
229 232 234 236 238 242 245 248 251 253 256 259 260 261 263 266 271 273 276 278 278 280 286 279 279 284 282 282 281 286 287 288 289 292 295 296 296 297
228 232 233 235 239 242 244 247 249 253 256 260 263 266 268 267 269 273 281 280 275 279 277 268 282 284 283 282 285 286 288 287 291 292 295 295 295 297
226 230 234 236 237 238 239 244 248 252 256 261 265 266 265 264 265 274 277 286 281 274 272 288 283 283 282 285 285 285 286 288 289 294 295 296 298 298
227 229 231 236 241 245 245 247 252 251 254 260 268 265 264 261 265 272 277 281 276 279 281 283 283 283 284 282 283 284 287 286 292 293 293 295 295 296
227 239 235 237 243 247 251 265 249 257 255 260 263 272 274 262 274 268 271 269 276 282 279 280 283 282 281 279 281 284 284 290 293 292 293 294 295 297
239 238 233 246 244 239 231 239 240 247 262 270 278 280 272 264 267 276 268 256 278 279 280 281 280 279 276 278 283 284 287 290 290 291 293 294 296 299
249 238 238 246 246 252 248 248 256 257 267 259 283 276 284 278 271 284 268 268 276 280 284 282 280 276 276 282 286 288 290 290 288 290 292 295 297 298
253 254 258 248 253 261 267 267 270 258 259 254 272 268 266 261 273 259 271 274 270 280 284 279 278 282 283 285 288 291 288 285 287 290 294 297 297 300
253 255 252 254 255 255 259 262 264 258 258 272 274 260 264 267 267 270 270 263 273 281 281 282 285 284 284 287 288 285 283 285 289 291 296 298 300 301
255 257 262 260 259 258 260 265 261 257 257 264 263 268 260 267 269 266 267 269 276 279 284 285 285 284 285 288 286 283 284 287 289 291 294 299 302 303
255 256 258 259 258 257 254 254 249 257 262 266 263 262 263 264 269 271 267 272 274 280 283 284 286 285 287 290 288 284 284 288 292 294 298 300 300 300
261 260 260 263 264 259 256 256 253 255 260 252 260 269 268 268 263 264 272 273 276 281 283 285 285 285 290 289 286 284 286 289 290 295 299 301 302 302
265 270 273 275 273 269 262 258 255 255 253 256 260 264 261 263 267 271 271 275 279 284 286 284 287 289 290 290 289 288 287 291 295 295 299 304 305 300
259 261 268 271 272 270 268 261 256 256 260 256 250 259 258 259 262 266 269 270 277 284 284 285 287 288 289 288 287 287 291 295 298 301 304 308 310 304
264 264 263 264 266 268 268 260 255 255 257 251 248 253 256 255 260 265 269 274 279 283 285 286 288 289 289 290 293 292 295 299 302 302 304 308 314 311
258 261 262 260 259 263 264 263 255 253 255 253 254 255 255 253 257 260 263 270 276 280 281 285 288 290 292 295 293 294 298 299 301 301 303 308 313 313
256 258 257 259 263 265 265 261 258 257 254 252 252 253 253 250 252 256 261 269 274 275 279 283 287 289 290 290 290 292 296 303 304 304 306 312 318 319
253 255 257 258 260 261 261 258 252 251 254 258 258 256 252 248 250 255 262 267 272 278 283 284 286 289 289 286 288 294 296 299 305 311 314 321 326 331
247 248 251 254 257 260 260 260 257 255 253 255 255 252 249 247 250 255 262 269 275 279 281 286 289 291 291 291 291 295 296 298 298 301 305 314 318 326